Time,TemperatureF,DewpointF,PressureIn,WindDirection,WindDirectionDegrees,WindSpeedMPH,WindSpeedGustMPH,Humidity,HourlyPrecipIn,Conditions,Clouds,dailyrainin,SoftwareType,DateUTC
2014-01-18 00:22:00,9.0,4.0,-100.00,SSE,165,5.0,9.0,78,0.00,,,-99.99,,2014-01-18 05:22:00,
2014-01-18 00:52:00,10.0,5.0,-100.00,South,170,7.0,12.0,80,0.00,,,-99.99,,2014-01-18 05:52:00,
2014-01-18 01:22:00,10.0,5.0,-100.00,South,170,10.0,14.0,80,0.00,,,-99.99,,2014-01-18 06:22:00,
2014-01-18 01:52:00,11.0,5.0,-100.00,South,185,9.0,13.0,78,0.00,,,-99.99,,2014-01-18 06:52:00,
2014-01-18 02:22:00,11.0,6.0,-100.00,South,170,7.0,11.0,79,0.00,,,-99.99,,2014-01-18 07:22:00,
2014-01-18 02:52:00,11.0,6.0,-100.00,South,170,9.0,12.0,78,0.00,,,-99.99,,2014-01-18 07:52:00,
2014-01-18 03:22:00,11.0,6.0,-100.00,South,170,9.0,14.0,77,0.00,,,-99.99,,2014-01-18 08:22:00,
2014-01-18 03:52:00,12.0,6.0,-100.00,SSE,165,9.0,16.0,77,0.00,,,-99.99,,2014-01-18 08:52:00,
2014-01-18 04:22:00,12.0,6.0,-100.00,South,170,8.0,13.0,78,0.00,,,-99.99,,2014-01-18 09:22:00,
2014-01-18 04:53:00,12.0,7.0,-100.00,South,170,8.0,14.0,79,0.00,,,-99.99,,2014-01-18 09:53:00,
2014-01-18 05:23:00,12.0,8.0,-100.00,South,175,9.0,12.0,80,0.00,,,-99.99,,2014-01-18 10:23:00,
2014-01-18 05:53:00,12.0,8.0,-100.00,South,175,7.0,12.0,81,0.00,,,-99.99,,2014-01-18 10:53:00,
2014-01-18 06:22:00,12.0,8.0,-100.00,South,170,9.0,14.0,82,0.00,,,-99.99,,2014-01-18 11:22:00,
2014-01-18 06:52:00,12.0,8.0,-100.00,South,170,7.0,11.0,82,0.00,,,-99.99,,2014-01-18 11:52:00,
2014-01-18 07:22:00,13.0,9.0,-100.00,SSE,160,6.0,12.0,83,0.00,,,-99.99,,2014-01-18 12:22:00,
2014-01-18 07:52:00,13.0,9.0,-100.00,South,170,7.0,11.0,82,0.00,,,-99.99,,2014-01-18 12:52:00,
2014-01-18 08:22:00,13.0,9.0,-100.00,South,170,7.0,11.0,83,0.00,,,-99.99,,2014-01-18 13:22:00,
2014-01-18 08:52:00,13.0,9.0,-100.00,SSE,165,7.0,12.0,82,0.00,,,-99.99,,2014-01-18 13:52:00,
2014-01-18 09:22:00,14.0,10.0,-100.00,SSE,155,7.0,10.0,82,0.55,,,-99.99,,2014-01-18 14:22:00,
2014-01-18 09:52:00,15.0,10.0,-100.00,SE,140,9.0,11.0,82,0.00,,,-99.99,,2014-01-18 14:52:00,
2014-01-18 10:22:00,16.0,11.0,-100.00,South,175,9.0,14.0,80,0.00,,,-99.99,,2014-01-18 15:22:00,
2014-01-18 10:53:00,16.0,11.0,-100.00,SE,145,11.0,16.0,80,0.00,,,-99.99,,2014-01-18 15:53:00,
2014-01-18 11:23:00,18.0,11.0,-100.00,SSE,150,9.0,16.0,75,0.00,,,-99.99,,2014-01-18 16:23:00,
2014-01-18 11:52:00,18.0,11.0,-100.00,SE,145,11.0,14.0,74,0.00,,,-99.99,,2014-01-18 16:52:00,
2014-01-18 12:22:00,19.0,12.0,-100.00,South,175,11.0,16.0,74,0.00,,,-99.99,,2014-01-18 17:22:00,
2014-01-18 12:52:00,20.0,13.0,-100.00,SSE,165,9.0,17.0,75,0.55,,,-99.99,,2014-01-18 17:52:00,
2014-01-18 13:22:00,20.0,13.0,-100.00,SSE,150,13.0,19.0,73,0.00,,,-99.99,,2014-01-18 18:22:00,
2014-01-18 13:52:00,20.0,14.0,-100.00,SE,140,11.0,18.0,77,0.00,,,-99.99,,2014-01-18 18:52:00,
2014-01-18 14:22:00,21.0,15.0,-100.00,ESE,115,12.0,18.0,77,0.00,,,-99.99,,2014-01-18 19:22:00,
2014-01-18 14:52:00,21.0,14.0,-100.00,ESE,115,15.0,18.0,74,0.00,,,-99.99,,2014-01-18 19:52:00,
2014-01-18 15:22:00,21.0,15.0,-100.00,ESE,115,14.0,19.0,75,0.00,,,-99.99,,2014-01-18 20:22:00,
2014-01-18 15:52:00,22.0,15.0,-100.00,SE,125,11.0,16.0,73,0.00,,,-99.99,,2014-01-18 20:52:00,
2014-01-18 16:22:00,23.0,15.0,-100.00,SE,125,14.0,19.0,70,0.00,,,-99.99,,2014-01-18 21:22:00,
2014-01-18 16:53:00,23.0,15.0,-100.00,SE,130,13.0,17.0,70,0.00,,,-99.99,,2014-01-18 21:53:00,
2014-01-18 17:22:00,23.0,15.0,-100.00,East,100,9.0,13.0,71,0.00,,,-99.99,,2014-01-18 22:22:00,
2014-01-18 17:53:00,22.0,18.0,-100.00,ESE,105,11.0,13.0,84,0.00,,,-99.99,,2014-01-18 22:53:00,
2014-01-18 18:22:00,22.0,19.0,-100.00,East,80,7.0,13.0,88,0.55,,,-99.99,,2014-01-18 23:22:00,
2014-01-18 18:53:00,22.0,19.0,-100.00,ENE,75,11.0,14.0,89,1.10,,,-99.99,,2014-01-18 23:53:00,
2014-01-18 19:22:00,22.0,19.0,-100.00,East,80,7.0,13.0,90,2.24,,,-99.99,,2014-01-19 00:22:00,
2014-01-18 19:52:00,21.0,19.0,-100.00,ENE,70,9.0,12.0,90,1.10,,,-99.99,,2014-01-19 00:52:00,
2014-01-18 20:22:00,21.0,19.0,-100.00,East,80,8.0,13.0,90,2.24,,,-99.99,,2014-01-19 01:22:00,
2014-01-18 20:52:00,21.0,19.0,-100.00,ENE,75,7.0,11.0,90,0.55,,,-99.99,,2014-01-19 01:52:00,
2014-01-18 21:22:00,21.0,19.0,-100.00,East,80,6.0,11.0,90,1.10,,,-99.99,,2014-01-19 02:22:00,
2014-01-18 21:52:00,22.0,19.0,-100.00,ENE,75,7.0,12.0,91,0.55,,,-99.99,,2014-01-19 02:52:00,
2014-01-18 22:22:00,22.0,20.0,-100.00,ENE,75,8.0,11.0,91,0.55,,,-99.99,,2014-01-19 03:22:00,
2014-01-18 22:53:00,22.0,20.0,-100.00,East,85,6.0,11.0,91,0.55,,,-99.99,,2014-01-19 03:53:00,
2014-01-18 23:03:00,-999.0,-99.9,-100.00,East,80,7.0,9.0,-999,0.55,,,-99.99,,2014-01-19 04:03:00,
2014-01-18 23:23:00,22.0,20.0,-100.00,East,85,6.0,9.0,91,0.00,,,-99.99,,2014-01-19 04:23:00,
2014-01-18 23:52:00,23.0,20.0,-100.00,East,80,6.0,9.0,91,0.00,,,-99.99,,2014-01-19 04:52:00,